Location: Possagno
(45.8500°N, 11.8667°E)
Time: 21:01:12
(UTC+00:00)

Resurs 1-4 Rocket - Pass Details

Date: 30 September 2020
Orbit: 800 x 813 km, 98.6° (Epoch: 27 October)

Event Time Altitude Azimuth Distance (km) Brightness Sun altitude
Rises 00:59:06 0° 13° (NNE) 3,331 6.0 -40.1°
Reaches altitude 10° 01:01:27 10° 13° (NNE) 2,397 5.1 -39.8°
Enters shadow 01:02:55 19° 13° (NNE) 1,824 4.4 -39.7°
